Weather History for South Haven, MI

Change the Weather History Date:

Wednesday, November 13, 2013

  Actual Average (KBIV) Record (KBIV)
Temperature  
Mean Temperature 34 °F 43 °F  
Max Temperature 39 °F 50 °F 67 °F (2011)
Min Temperature 31 °F 36 °F 16 °F (1986)
Degree Days  
Heating Degree Days 30 22  
Month to date heating degree days 259  
Since 1 July heating degree days 784  
Cooling Degree Days 0 0  
Month to date cooling degree days 0  
Year to date cooling degree days 693  
Moisture  
Dew Point 21 °F    
Average Humidity 59    
Maximum Humidity 69    
Minimum Humidity 46    
Precipitation  
Precipitation 0.00 in 0.13 in 0.70 in (1993)
Month to date precipitation 1.77  
Year to date precipitation 32.47  
Sea Level Pressure  
Sea Level Pressure 30.38 in    
Wind  
Wind Speed 11 mph (SW)    
Max Wind Speed 20 mph    
Max Gust Speed 29 mph    
Visibility 10 miles    
Events      
T = Trace of Precipitation, MM = Missing Value Source: NWS Daily Summary

Daily Weather History Graph

Daily Weather History Graph

Search for Another Location

Airport:

Trip Planner

Search our weather history database for the weather conditions in past years. The results will help you decide how hot, cold, wet, or windy it might be!

Date:

Astronomy

Nov. 13, 2013 Rise Set
Actual Time 7:33 AM EST 5:24 PM EST
Civil Twilight 7:03 AM EST 5:54 PM EST
Nautical Twilight 6:29 AM EST 6:28 PM EST
Astronomical Twilight 5:56 AM EST 7:01 PM EST
Moon 3:15 PM EST (11/13) 3:21 AM EST (11/13)
Length of Visible Light 10h 51m
Length of Day
9h 51m
Waxing Gibbous, 84% of the Moon is Illuminated
Nov 13
Waxing Gibbous
Nov 17
Full
Nov 25
Last Quarter
Dec 2
New
Dec 9
First Quarter

Hourly Weather History & Observations

Time (EST) Temp. Windchill Dew Point Humidity Pressure Visibility Wind Dir Wind Speed Gust Speed Precip Events Conditions
12:15 AM 32.2 °F 23.8 °F 20.3 °F 62% 30.54 in 10.0 mi West 10.4 mph 16.1 mph N/A   Mostly Cloudy
12:35 AM 32.0 °F 26.4 °F 20.5 °F 63% 30.54 in 10.0 mi WNW 5.8 mph - N/A   Scattered Clouds
12:55 AM 32.0 °F 25.6 °F 21.2 °F 64% 30.53 in 10.0 mi West 6.9 mph - N/A   Mostly Cloudy
1:15 AM 31.6 °F 26.0 °F 20.3 °F 63% 30.53 in 10.0 mi West 5.8 mph - N/A   Scattered Clouds
1:35 AM 31.8 °F 25.4 °F 21.0 °F 64% 30.52 in 10.0 mi West 6.9 mph - N/A   Scattered Clouds
1:55 AM 31.8 °F 27.3 °F 21.2 °F 65% 30.52 in 10.0 mi West 4.6 mph - N/A   Scattered Clouds
2:15 AM 32.0 °F 26.4 °F 21.9 °F 66% 30.53 in 10.0 mi West 5.8 mph - N/A   Scattered Clouds
2:35 AM 32.0 °F 24.2 °F 22.3 °F 67% 30.54 in 10.0 mi West 9.2 mph - N/A   Mostly Cloudy
2:55 AM 32.0 °F 24.8 °F 22.3 °F 67% 30.53 in 10.0 mi West 8.1 mph - N/A   Scattered Clouds
3:15 AM 32.0 °F 24.8 °F 21.9 °F 66% 30.53 in 10.0 mi West 8.1 mph - N/A   Scattered Clouds
3:35 AM 32.0 °F 24.8 °F 22.1 °F 67% 30.52 in 10.0 mi West 8.1 mph - N/A   Scattered Clouds
3:55 AM 32.0 °F 25.6 °F 22.8 °F 69% 30.51 in 10.0 mi West 6.9 mph - N/A   Scattered Clouds
4:15 AM 32.0 °F 25.6 °F 21.4 °F 65% 30.51 in 10.0 mi West 6.9 mph - N/A   Clear
4:35 AM 32.0 °F 24.2 °F 21.6 °F 65% 30.50 in 10.0 mi WSW 9.2 mph - N/A   Clear
4:55 AM 32.2 °F 25.0 °F 20.5 °F 62% 30.50 in 10.0 mi WSW 8.1 mph - N/A   Clear
5:15 AM 32.2 °F 23.8 °F 20.3 °F 62% 30.50 in 10.0 mi WSW 10.4 mph - N/A   Clear
5:35 AM 32.5 °F 24.8 °F 20.1 °F 60% 30.50 in 10.0 mi West 9.2 mph - N/A   Clear
5:55 AM 32.5 °F 24.8 °F 20.3 °F 61% 30.50 in 10.0 mi West 9.2 mph - N/A   Clear
6:15 AM 32.2 °F 22.7 °F 19.8 °F 60% 30.49 in 10.0 mi WSW 12.7 mph - N/A   Clear
6:35 AM 32.4 °F 24.0 °F 19.9 °F 60% 30.49 in 10.0 mi West 10.4 mph 18.4 mph N/A   Clear
6:55 AM 32.2 °F 24.4 °F 20.8 °F 63% 30.49 in 10.0 mi WSW 9.2 mph - N/A   Clear
7:15 AM 32.0 °F 23.6 °F 21.2 °F 64% 30.49 in 10.0 mi WSW 10.4 mph 16.1 mph N/A   Clear
7:35 AM 32.2 °F 23.8 °F 20.8 °F 63% 30.49 in 10.0 mi West 10.4 mph 16.1 mph N/A   Clear
7:55 AM 32.5 °F 24.8 °F 21.2 °F 63% 30.49 in 10.0 mi West 9.2 mph 13.8 mph N/A   Clear
8:15 AM 33.1 °F 23.0 °F 19.2 °F 57% 30.49 in 10.0 mi WSW 15.0 mph 20.7 mph N/A   Clear
8:35 AM 33.8 °F 26.4 °F 20.3 °F 58% 30.49 in 10.0 mi WSW 9.2 mph 19.6 mph N/A   Clear
8:55 AM 34.3 °F 25.9 °F 21.2 °F 59% 30.49 in 10.0 mi West 11.5 mph 18.4 mph N/A   Clear
9:15 AM 34.2 °F 23.6 °F 20.8 °F 58% 30.48 in 10.0 mi West 17.3 mph 21.9 mph N/A   Clear
9:35 AM 34.7 °F 25.5 °F 21.7 °F 59% 30.48 in 10.0 mi WSW 13.8 mph 21.9 mph N/A   Clear
9:55 AM 34.7 °F 25.5 °F 21.0 °F 57% 30.47 in 10.0 mi WSW 13.8 mph 21.9 mph N/A   Clear
10:15 AM 34.9 °F 25.3 °F 20.3 °F 55% 30.47 in 10.0 mi WSW 15.0 mph 23.0 mph N/A   Clear
10:35 AM 35.1 °F 25.5 °F 21.6 °F 58% 30.46 in 10.0 mi WSW 15.0 mph 23.0 mph N/A   Clear
10:55 AM 36.7 °F 28.9 °F 23.9 °F 60% 30.46 in 10.0 mi WSW 11.5 mph 18.4 mph N/A   Clear
11:15 AM 36.0 °F 25.3 °F 21.4 °F 55% 30.45 in 10.0 mi WSW 19.6 mph 24.2 mph N/A   Clear
11:35 AM 36.0 °F 26.3 °F 21.4 °F 55% 30.44 in 10.0 mi SW 16.1 mph 24.2 mph N/A   Clear
11:55 AM 37.8 °F 29.0 °F 21.7 °F 53% 30.43 in 10.0 mi SW 15.0 mph 24.2 mph N/A   Clear
12:15 PM 37.9 °F 29.2 °F 21.2 °F 51% 30.42 in 10.0 mi WSW 15.0 mph 24.2 mph N/A   Clear
12:35 PM 38.5 °F 29.2 °F 21.2 °F 50% 30.40 in 10.0 mi WSW 17.3 mph 28.8 mph N/A   Clear
12:55 PM 38.3 °F 29.7 °F 22.6 °F 53% 30.39 in 10.0 mi SW 15.0 mph 24.2 mph N/A   Clear
1:15 PM 38.3 °F 29.0 °F 21.9 °F 52% 30.38 in 10.0 mi SSW 17.3 mph 26.5 mph N/A   Clear
1:35 PM 38.5 °F 29.2 °F 20.3 °F 48% 30.37 in 10.0 mi SW 17.3 mph 25.3 mph N/A   Clear
1:55 PM 38.7 °F 30.9 °F 19.2 °F 46% 30.37 in 10.0 mi SSW 12.7 mph 19.6 mph N/A   Clear
2:15 PM 37.6 °F 30.5 °F 18.7 °F 47% 30.36 in 10.0 mi SSW 10.4 mph 18.4 mph N/A   Clear
2:35 PM 37.0 °F 28.5 °F 18.7 °F 48% 30.35 in 10.0 mi SW 13.8 mph 23.0 mph N/A   Clear
2:55 PM 36.7 °F 28.9 °F 18.5 °F 48% 30.34 in 10.0 mi SSW 11.5 mph 20.7 mph N/A   Clear
3:15 PM 36.0 °F 27.5 °F 18.7 °F 50% 30.33 in 10.0 mi SSW 12.7 mph 19.6 mph N/A   Clear
3:35 PM 35.8 °F 26.1 °F 18.5 °F 50% 30.32 in 10.0 mi South 16.1 mph 19.6 mph N/A   Clear
3:56 PM 35.6 °F 26.2 °F 18.1 °F 49% 30.31 in 10.0 mi SSW 15.0 mph 21.9 mph N/A   Clear
4:15 PM 35.6 °F 27.1 °F 18.5 °F 50% 30.30 in 10.0 mi South 12.7 mph 20.7 mph N/A   Clear
4:35 PM 34.9 °F 26.2 °F 18.7 °F 52% 30.30 in 10.0 mi South 12.7 mph 16.1 mph N/A   Clear
4:55 PM 34.7 °F 25.1 °F 18.7 °F 52% 30.28 in 10.0 mi SSW 15.0 mph 20.7 mph N/A   Clear
5:15 PM 34.0 °F 24.6 °F 19.0 °F 54% 30.27 in 10.0 mi South 13.8 mph 21.9 mph N/A   Clear
5:35 PM 33.4 °F 23.5 °F 19.2 °F 56% 30.27 in 10.0 mi SSW 15.0 mph 18.4 mph N/A   Clear
5:55 PM 33.3 °F 24.1 °F 19.9 °F 58% 30.26 in 10.0 mi SSW 12.7 mph 20.7 mph N/A   Clear
6:15 PM 33.4 °F 24.3 °F 20.3 °F 59% 30.25 in 10.0 mi SSW 12.7 mph 21.9 mph N/A   Clear
6:35 PM 33.8 °F 23.9 °F 20.7 °F 59% 30.25 in 10.0 mi SSW 15.0 mph 23.0 mph N/A   Clear
6:55 PM 33.3 °F 22.5 °F 21.0 °F 61% 30.24 in 10.0 mi SSW 17.3 mph 24.2 mph N/A   Clear
7:15 PM 33.1 °F 22.6 °F 21.2 °F 62% 30.24 in 10.0 mi SSW 16.1 mph 24.2 mph N/A   Clear
7:35 PM 32.9 °F 22.4 °F 21.2 °F 62% 30.23 in 10.0 mi SSW 16.1 mph 20.7 mph N/A   Clear
7:55 PM 32.9 °F 23.7 °F 21.2 °F 62% 30.23 in 10.0 mi SSW 12.7 mph 23.0 mph N/A   Clear
8:15 PM 32.5 °F 23.2 °F 21.2 °F 63% 30.22 in 10.0 mi SSW 12.7 mph 18.4 mph N/A   Clear
8:35 PM 32.7 °F 22.5 °F 21.2 °F 63% 30.21 in 10.0 mi SSW 15.0 mph 21.9 mph N/A   Clear
8:55 PM 32.9 °F 22.8 °F 21.2 °F 62% 30.20 in 10.0 mi SSW 15.0 mph 19.6 mph N/A   Clear
9:15 PM 32.5 °F 23.7 °F 21.2 °F 63% 30.20 in 10.0 mi SSW 11.5 mph 19.6 mph N/A   Clear
9:35 PM 32.5 °F 23.7 °F 21.0 °F 63% 30.20 in 10.0 mi SSW 11.5 mph 19.6 mph N/A   Clear
9:55 PM 32.2 °F 23.2 °F 20.8 °F 63% 30.19 in 10.0 mi SSW 11.5 mph 19.6 mph N/A   Clear
10:15 PM 32.2 °F 24.4 °F 21.0 °F 63% 30.19 in 10.0 mi SSW 9.2 mph 17.3 mph N/A   Clear
10:35 PM 32.0 °F 24.8 °F 21.0 °F 64% 30.19 in 10.0 mi SSW 8.1 mph - N/A   Clear
10:55 PM 32.0 °F 24.2 °F 21.2 °F 64% 30.19 in 10.0 mi SSW 9.2 mph 16.1 mph N/A   Clear
11:15 PM 32.9 °F 24.7 °F 21.6 °F 63% 30.18 in 10.0 mi SSW 10.4 mph 17.3 mph N/A   Clear
11:35 PM 32.9 °F 24.1 °F 21.2 °F 62% 30.18 in 10.0 mi SSW 11.5 mph 16.1 mph N/A   Clear
11:55 PM 32.5 °F 27.1 °F 21.0 °F 63% 30.18 in 10.0 mi SSW 5.8 mph - N/A   Clear